Hanford, WA
on Thursday, December 20, 2012

Thursday
Previous Day Next Day
Daily Summary
 ActualAverage (KMWH)Record (KMWH)
Temperature
Mean Temperature °F 28°F  
Max Temperature 56°F 34°F 51°F (1996)
Min Temperature 39°F 22°F -6°F (1984)
Degree Days
Heating Degree Days 18 37  
Month to date heating degree days 714  
Since 1 July heating degree days 2175  
Cooling Degree Days 0 0  
Month to date cooling degree days 0  
Year to date cooling degree days 615  
Moisture
Dew Point 25°F   
Average Humidity 44    
Maximum Humidity 75    
Minimum Humidity 27    
Precipitation
Precipitation 0.00 in 0.06 in 0.20 in (1982)
Month to date precipitation 0.83  
Year to date precipitation 8.50  
Wind
Wind Speed 21 mph   
Max Wind Speed 32 mph   
Max Gust Speed 48 mph   
Visibility 15 miles   
Events     

Key: T is trace of precipitation, MM is missing value
Source: NWS Daily Summary
Time(PST)TemperatureDew PointHumidity Pressure Visibility Wind DirectionWind SpeedGust SpeedPrecipitationEvents Conditions
12:50 AM 45.3°F 20.1°F 37% 29.77 in 15.0 miles SSE 32.2 mph 40.3 mph N/A   Overcast
1:50 AM 46.8°F 21.6°F 37% 29.75 in 15.0 miles SSE 27.6 mph 48.3 mph N/A   Overcast
2:50 AM 45.7°F 24.3°F 43% 29.75 in 15.0 miles ESE 23.0 mph - N/A   Overcast
3:50 AM 45.9°F 23.4°F 41% 29.74 in 15.0 miles ESE 23.0 mph - N/A   Overcast
4:50 AM 45.5°F 21.6°F 39% 29.73 in 15.0 miles SSE 25.3 mph 32.2 mph N/A   Overcast
5:50 AM 45.7°F 21.9°F 39% 29.72 in 15.0 miles SE 12.7 mph - N/A   Overcast
6:50 AM 45.9°F 21.6°F 38% 29.70 in 15.0 miles ESE 13.8 mph - N/A   Overcast
7:50 AM 46.4°F 21.4°F 37% 29.69 in 15.0 miles ESE 17.3 mph - N/A   Overcast
8:50 AM 47.3°F 21.6°F 36% 29.68 in 15.0 miles ESE 18.4 mph 27.6 mph N/A   Overcast
9:50 AM 47.8°F 22.3°F 37% 29.67 in 15.0 miles ESE 12.7 mph 21.9 mph N/A   Overcast
10:50 AM 52.5°F 22.3°F 31% 29.67 in 15.0 miles SE 11.5 mph 20.7 mph N/A   Mostly Cloudy
11:50 AM 55.9°F 22.6°F 28% 29.65 in 15.0 miles South 24.2 mph 33.4 mph N/A   Mostly Cloudy
12:50 PM 56.7°F 23.2°F 27% 29.65 in 15.0 miles South 23.0 mph 34.5 mph N/A   Mostly Cloudy
1:50 PM 52.0°F 27.0°F 38% 29.65 in 15.0 miles SSW 11.5 mph - N/A   Overcast
2:50 PM 50.9°F 27.1°F 40% 29.67 in 15.0 miles SW 17.3 mph 27.6 mph N/A   Mostly Cloudy
3:50 PM 45.3°F 29.8°F 55% 29.73 in 15.0 miles West 17.3 mph - N/A   Mostly Cloudy
4:50 PM 45.0°F 28.9°F 53% 29.76 in 15.0 miles WSW 18.4 mph 25.3 mph N/A   Overcast
5:50 PM 43.0°F 29.8°F 60% 29.78 in 15.0 miles SSW 18.4 mph - N/A   Mostly Cloudy
6:50 PM 42.4°F 28.4°F 58% 29.80 in 15.0 miles SW 16.1 mph - N/A   Overcast
9:50 PM 41.5°F 26.2°F 55% 29.84 in 15.0 miles South 9.2 mph - N/A   Overcast
10:50 PM 39.9°F 28.9°F 65% 29.85 in 15.0 miles SE 8.1 mph - N/A   Overcast
11:50 PM 39.0°F 31.6°F 75% 29.85 in 15.0 miles SE 4.6 mph - N/A   Overcast
Moon Phase
Dec. 20 Dec. 28 Jan. 04 Jan. 11 Jan. 18
Sunrise:07:39 AM (PST) Moon Rise:11:51 AM (PST)
Sunset:04:13 PM (PST) Moon Set:12:12 AM (PST)

Copyright © 2014 The Weather Underground, Inc.